Location: Cheadle
(51.0146°N, 113.5417°W)
Time: 11:17:17
(UTC+00:00)

TIGRISAT - Pass Details

Date: 07 December 2023
Orbit: 596 x 675 km, 97.7° (Epoch: 21 February)

Event Time Altitude Azimuth Distance (km) Brightness Sun altitude
Exits shadow 00:47:59 - 14° (NNE) 2,870 ? -11.8°
Reaches altitude 10° 00:49:58 10° 16° (NNE) 2,055 ? -12.1°
Maximum altitude 00:54:27 80° 103° (ESE) 650 ? -12.7°
Drops below altitude 10° 00:58:47 10° 191° (S) 1,988 ? -13.4°
Sets 01:00:56 0° 193° (SSW) 2,878 ? -13.7°
